QFA50A YSSY-NZTG

Flight info

Callsign QFA50A
Flight time N/A
Altitude 35000
Route EVONN L521 LUNBI Y683 LEKUS Q537 HN H105 OLDON
Aircraft B738/M-SDE2E3FGHIRWXY/LB1

Departure

Time 2026-05-06 12:02
Airport Sydney Kingsford Smith International Airport (YSSY)

Arrival

Time N/A
Airport Tauranga Airport (NZTG)
Time Latitude Longitude Altitude Speed Heading
2026-05-06 11:02 -33.93156 151.17857 30 ft 0 kts 190°
2026-05-06 11:32 -33.93147 151.17859 30 ft 4 kts 190°
2026-05-06 11:33 -33.93120 151.17865 30 ft 4 kts 192°
2026-05-06 11:33 -33.93095 151.17875 30 ft 4 kts 216°
2026-05-06 11:33 -33.93079 151.17897 30 ft 4 kts 260°
2026-05-06 11:33 -33.93078 151.17910 30 ft 1 kts 279°
2026-05-06 11:36 -33.93078 151.17909 30 ft 0 kts 279°
2026-05-06 11:37 -33.93078 151.17908 30 ft 0 kts 279°
2026-05-06 11:40 -33.93078 151.17907 30 ft 0 kts 279°
2026-05-06 11:40 -33.93078 151.17906 30 ft 0 kts 279°
2026-05-06 11:43 -33.93076 151.17893 30 ft 4 kts 279°
2026-05-06 11:44 -33.93058 151.17775 29 ft 10 kts 284°
2026-05-06 11:44 -33.93027 151.17692 29 ft 12 kts 297°
2026-05-06 11:44 -33.93005 151.17595 29 ft 12 kts 275°
2026-05-06 11:44 -33.93056 151.17532 29 ft 12 kts 191°
2026-05-06 11:45 -33.93139 151.17531 29 ft 13 kts 173°
2026-05-06 11:45 -33.93241 151.17556 29 ft 17 kts 168°
2026-05-06 11:45 -33.93356 151.17585 29 ft 16 kts 168°
2026-05-06 11:45 -33.93464 151.17589 27 ft 16 kts 187°
2026-05-06 11:46 -33.93570 151.17607 30 ft 15 kts 167°
2026-05-06 11:46 -33.93667 151.17652 27 ft 16 kts 146°
2026-05-06 11:46 -33.93779 151.17696 19 ft 18 kts 165°
2026-05-06 11:46 -33.93825 151.17711 18 ft 1 kts 155°
2026-05-06 11:47 -33.93862 151.17750 20 ft 11 kts 133°
2026-05-06 11:47 -33.93939 151.17790 21 ft 14 kts 166°
2026-05-06 11:47 -33.94048 151.17819 22 ft 16 kts 168°
2026-05-06 11:47 -33.94157 151.17847 26 ft 16 kts 167°
2026-05-06 11:48 -33.94272 151.17878 26 ft 18 kts 168°
2026-05-06 11:48 -33.94391 151.17908 25 ft 17 kts 167°
2026-05-06 11:48 -33.94505 151.17887 25 ft 17 kts 194°
2026-05-06 11:48 -33.94598 151.17904 24 ft 11 kts 174°
2026-05-06 11:49 -33.94691 151.17927 22 ft 17 kts 167°
2026-05-06 11:49 -33.94813 151.17959 20 ft 18 kts 168°
2026-05-06 11:49 -33.94932 151.17990 21 ft 17 kts 168°
2026-05-06 11:49 -33.95038 151.18017 26 ft 9 kts 168°
2026-05-06 11:50 -33.95087 151.18041 27 ft 8 kts 136°
2026-05-06 11:50 -33.95104 151.18098 26 ft 8 kts 88°
2026-05-06 11:50 -33.95093 151.18159 24 ft 8 kts 77°
2026-05-06 11:50 -33.95079 151.18231 23 ft 9 kts 77°
2026-05-06 11:51 -33.95067 151.18306 24 ft 10 kts 78°
2026-05-06 11:51 -33.95051 151.18399 25 ft 11 kts 78°
2026-05-06 11:51 -33.95052 151.18490 29 ft 11 kts 116°
2026-05-06 11:51 -33.95110 151.18538 28 ft 10 kts 145°
2026-05-06 11:52 -33.95171 151.18604 25 ft 15 kts 137°
2026-05-06 11:52 -33.95262 151.18691 29 ft 17 kts 149°
2026-05-06 11:52 -33.95386 151.18739 24 ft 21 kts 167°
2026-05-06 11:52 -33.95533 151.18779 22 ft 22 kts 167°
2026-05-06 11:53 -33.95673 151.18815 25 ft 19 kts 167°
2026-05-06 11:53 -33.95795 151.18847 25 ft 16 kts 168°
2026-05-06 11:53 -33.95898 151.18873 28 ft 15 kts 167°
2026-05-06 11:53 -33.95998 151.18898 29 ft 14 kts 168°
2026-05-06 11:54 -33.96093 151.18922 28 ft 14 kts 167°
2026-05-06 11:54 -33.96183 151.18947 27 ft 13 kts 168°
2026-05-06 11:54 -33.96271 151.18969 28 ft 13 kts 168°
2026-05-06 11:54 -33.96356 151.18992 29 ft 13 kts 168°
2026-05-06 11:55 -33.96446 151.19015 20 ft 14 kts 168°
2026-05-06 11:55 -33.96542 151.19040 18 ft 14 kts 168°
2026-05-06 11:55 -33.96634 151.19064 18 ft 13 kts 168°
2026-05-06 11:55 -33.96723 151.19080 18 ft 13 kts 182°
2026-05-06 11:56 -33.96812 151.19070 19 ft 14 kts 179°
2026-05-06 11:56 -33.96903 151.19090 18 ft 13 kts 167°
2026-05-06 11:56 -33.96990 151.19114 20 ft 13 kts 167°
2026-05-06 11:56 -33.97064 151.19130 20 ft 9 kts 168°
2026-05-06 11:57 -33.97118 151.19152 20 ft 8 kts 139°
2026-05-06 11:57 -33.97133 151.19196 20 ft 3 kts 87°
2026-05-06 11:57 -33.97132 151.19198 20 ft 0 kts 85°
2026-05-06 11:58 -33.97132 151.19199 20 ft 0 kts 85°
2026-05-06 11:58 -33.97132 151.19202 20 ft 1 kts 85°
2026-05-06 11:58 -33.97129 151.19227 20 ft 5 kts 79°
2026-05-06 11:58 -33.97123 151.19259 20 ft 0 kts 78°
2026-05-06 11:59 -33.97123 151.19260 20 ft 2 kts 78°
2026-05-06 11:59 -33.97112 151.19323 20 ft 9 kts 78°
2026-05-06 12:00 -33.97080 151.19381 22 ft 9 kts 15°
2026-05-06 12:00 -33.97054 151.19375 20 ft 0 kts 347°
2026-05-06 12:01 -33.97033 151.19369 20 ft 18 kts 347°
2026-05-06 12:01 -33.96677 151.19276 17 ft 86 kts 348°
2026-05-06 12:02 -33.95904 151.19076 28 ft 140 kts 348°
2026-05-06 12:02 -33.94841 151.18780 243 ft 165 kts 347°
2026-05-06 12:02 -33.93789 151.18512 1218 ft 140 kts 348°
2026-05-06 12:02 -33.92834 151.18569 1766 ft 154 kts 27°
2026-05-06 12:03 -33.92200 151.19708 2049 ft 185 kts 74°
2026-05-06 12:03 -33.92155 151.21312 2563 ft 200 kts 99°
2026-05-06 12:03 -33.92724 151.22867 3212 ft 205 kts 117°
2026-05-06 12:03 -33.93392 151.24390 3890 ft 206 kts 117°
2026-05-06 12:04 -33.93843 151.26026 4469 ft 212 kts 90°
2026-05-06 12:04 -33.93796 151.27884 4671 ft 232 kts 88°
2026-05-06 12:04 -33.94183 151.29847 4841 ft 253 kts 113°
2026-05-06 12:04 -33.94929 151.31843 5053 ft 271 kts 114°
2026-05-06 12:05 -33.95716 151.33985 5359 ft 287 kts 114°
2026-05-06 12:05 -33.96521 151.36214 6057 ft 290 kts 113°
2026-05-06 12:05 -33.97316 151.38442 6836 ft 290 kts 113°
2026-05-06 12:05 -33.98109 151.40687 7504 ft 293 kts 112°
2026-05-06 12:06 -33.98913 151.42982 8112 ft 299 kts 112°
2026-05-06 12:06 -33.99721 151.45303 8790 ft 302 kts 112°
2026-05-06 12:06 -34.00534 151.47646 9488 ft 305 kts 112°
2026-05-06 12:06 -34.01346 151.49990 10066 ft 311 kts 112°
2026-05-06 12:07 -34.02198 151.52458 10339 ft 329 kts 112°
2026-05-06 12:07 -34.03102 151.55082 10499 ft 349 kts 112°
2026-05-06 12:07 -34.04057 151.57855 10641 ft 368 kts 112°
2026-05-06 12:07 -34.05059 151.60771 10854 ft 384 kts 112°
2026-05-06 12:08 -34.06093 151.63783 11261 ft 392 kts 112°
2026-05-06 12:08 -34.07144 151.66846 11761 ft 397 kts 112°
2026-05-06 12:08 -34.08204 151.69938 12386 ft 399 kts 112°
2026-05-06 12:08 -34.09269 151.73049 12983 ft 403 kts 112°
2026-05-06 12:09 -34.10341 151.76186 13556 ft 407 kts 112°
2026-05-06 12:09 -34.11426 151.79362 14118 ft 411 kts 112°
2026-05-06 12:09 -34.12506 151.82526 14668 ft 414 kts 112°
2026-05-06 12:09 -34.13608 151.85758 15238 ft 417 kts 112°
2026-05-06 12:10 -34.14717 151.89015 15804 ft 420 kts 112°
2026-05-06 12:10 -34.15833 151.92295 16388 ft 424 kts 112°
2026-05-06 12:10 -34.16958 151.95603 16942 ft 427 kts 112°
2026-05-06 12:10 -34.18090 151.98937 17479 ft 431 kts 112°
2026-05-06 12:11 -34.19230 152.02296 17995 ft 434 kts 112°
2026-05-06 12:11 -34.20350 152.05710 18509 ft 438 kts 111°
2026-05-06 12:11 -34.21392 152.09191 18976 ft 441 kts 109°
2026-05-06 12:11 -34.22385 152.12657 19458 ft 444 kts 109°
2026-05-06 12:12 -34.23386 152.16201 19927 ft 447 kts 109°
2026-05-06 12:12 -34.24394 152.19763 20384 ft 450 kts 109°
2026-05-06 12:12 -34.25418 152.23361 20837 ft 453 kts 109°
2026-05-06 12:12 -34.26454 152.26972 21271 ft 456 kts 109°
2026-05-06 12:13 -34.27501 152.30606 21707 ft 459 kts 109°
2026-05-06 12:13 -34.28558 152.34268 22122 ft 462 kts 109°
2026-05-06 12:13 -34.29623 152.37956 22546 ft 465 kts 109°
2026-05-06 12:13 -34.30693 152.41663 22960 ft 468 kts 109°
2026-05-06 12:14 -34.31769 152.45394 23361 ft 471 kts 108°
2026-05-06 12:14 -34.32852 152.49157 23735 ft 474 kts 108°
2026-05-06 12:14 -34.33937 152.52932 24037 ft 477 kts 108°
2026-05-06 12:14 -34.35030 152.56739 24348 ft 480 kts 108°
2026-05-06 12:15 -34.36113 152.60516 24650 ft 483 kts 108°
2026-05-06 12:15 -34.37219 152.64382 24946 ft 486 kts 108°
2026-05-06 12:15 -34.38328 152.68261 25235 ft 489 kts 108°
2026-05-06 12:15 -34.39443 152.72166 25530 ft 492 kts 108°
2026-05-06 12:16 -34.40561 152.76091 25814 ft 494 kts 108°
2026-05-06 12:16 -34.41686 152.80043 26092 ft 497 kts 108°
2026-05-06 12:16 -34.42814 152.84009 26353 ft 500 kts 108°
2026-05-06 12:16 -34.43948 152.88007 26614 ft 503 kts 108°
2026-05-06 12:17 -34.45086 152.92022 26871 ft 505 kts 108°
2026-05-06 12:17 -34.46230 152.96062 27125 ft 508 kts 108°
2026-05-06 12:17 -34.47378 153.00126 27361 ft 510 kts 108°
2026-05-06 12:17 -34.48530 153.04209 27619 ft 513 kts 108°
2026-05-06 12:18 -34.49686 153.08311 27857 ft 515 kts 108°
2026-05-06 12:18 -34.50848 153.12440 28094 ft 518 kts 108°
2026-05-06 12:18 -34.52011 153.16579 28335 ft 520 kts 108°
2026-05-06 12:18 -34.53177 153.20733 28665 ft 520 kts 108°
2026-05-06 12:19 -34.54342 153.24893 29025 ft 519 kts 108°
2026-05-06 12:19 -34.55504 153.29045 29375 ft 519 kts 108°
2026-05-06 12:19 -34.56646 153.33134 29676 ft 520 kts 108°
2026-05-06 12:19 -34.57809 153.37303 29974 ft 521 kts 108°
2026-05-06 12:20 -34.58968 153.41465 30270 ft 521 kts 108°
2026-05-06 12:20 -34.60127 153.45636 30539 ft 521 kts 108°
2026-05-06 12:20 -34.61285 153.49807 30795 ft 522 kts 108°
2026-05-06 12:20 -34.62443 153.53982 31044 ft 522 kts 108°
2026-05-06 12:21 -34.63601 153.58167 31293 ft 523 kts 108°
2026-05-06 12:21 -34.64759 153.62357 31542 ft 523 kts 108°
2026-05-06 12:21 -34.65918 153.66556 31786 ft 524 kts 108°
2026-05-06 12:21 -34.67075 153.70756 32025 ft 524 kts 108°
2026-05-06 12:22 -34.68234 153.74966 32264 ft 525 kts 108°
2026-05-06 12:22 -34.69391 153.79180 32456 ft 527 kts 108°
2026-05-06 12:22 -34.70551 153.83411 32667 ft 528 kts 108°
2026-05-06 12:22 -34.71709 153.87638 32921 ft 528 kts 108°
2026-05-06 12:23 -34.72865 153.91867 33178 ft 527 kts 108°
2026-05-06 12:23 -34.74023 153.96107 33409 ft 528 kts 108°
2026-05-06 12:23 -34.75165 154.00297 33627 ft 528 kts 108°
2026-05-06 12:23 -34.76320 154.04540 33852 ft 529 kts 108°
2026-05-06 12:24 -34.77476 154.08795 34084 ft 529 kts 108°
2026-05-06 12:24 -34.78628 154.13038 34332 ft 527 kts 108°
2026-05-06 12:24 -34.79773 154.17267 34610 ft 525 kts 108°
2026-05-06 12:24 -34.80914 154.21482 34873 ft 524 kts 108°
2026-05-06 12:25 -34.82050 154.25689 35062 ft 524 kts 108°
2026-05-06 12:25 -34.83191 154.29924 35050 ft 527 kts 108°
2026-05-06 12:25 -34.85471 154.38400 35045 ft 525 kts 108°
2026-05-06 12:26 -34.87729 154.46818 35056 ft 521 kts 107°
2026-05-06 12:26 -34.89956 154.55148 35055 ft 519 kts 107°
2026-05-06 12:27 -34.92186 154.63518 35056 ft 517 kts 107°
2026-05-06 12:27 -34.94404 154.71865 35061 ft 518 kts 107°
2026-05-06 12:28 -34.96619 154.80230 35067 ft 519 kts 107°
2026-05-06 12:28 -34.98823 154.88578 35066 ft 521 kts 107°
2026-05-06 12:29 -35.01042 154.97008 35065 ft 523 kts 107°
2026-05-06 12:29 -35.03267 155.05484 35065 ft 525 kts 107°
2026-05-06 12:30 -35.05493 155.13994 35059 ft 527 kts 107°
2026-05-06 12:30 -35.07716 155.22517 35074 ft 527 kts 107°
2026-05-06 12:31 -35.09934 155.31049 35055 ft 526 kts 107°
2026-05-06 12:31 -35.12138 155.39556 35054 ft 524 kts 107°
2026-05-06 12:32 -35.14311 155.47968 35057 ft 522 kts 107°